This is the latest recevied weather packets stored in our database for station/object IZ3LCH-13. If no packets are shown the sender has not sent any weather packets the latest 10 day(s).
| Time | Temp. | Humidity | Pressure | Rain* | Wind** | Luminosity | Snow |
|---|---|---|---|---|---|---|---|
| 1777476603 | 19.44° C | 54% | 1016.4 hPa | 0 mm | - | - | - |
| 1777476303 | 19.44° C | 54% | 1016.7 hPa | 0 mm | - | - | - |
| 1777476003 | 20° C | 53% | 1016.7 hPa | 0 mm | - | - | - |
| 1777475403 | 21.11° C | 51% | 1016.4 hPa | 0 mm | - | - | - |
| 1777475103 | 21.11° C | 51% | 1016.6 hPa | 0 mm | - | - | - |
| 1777474803 | 20.56° C | 52% | 1016.4 hPa | 0 mm | - | - | - |
| 1777474503 | 20.56° C | 50% | 1016.4 hPa | 0 mm | - | - | - |
| 1777474203 | 21.11° C | 50% | 1016.5 hPa | 0 mm | - | - | - |
| 1777473903 | 21.67° C | 50% | 1016.2 hPa | 0 mm | - | - | - |
| 1777473603 | 21.67° C | 52% | 1016.5 hPa | 0 mm | - | - | - |
| 1777473304 | 21.67° C | 53% | 1016.4 hPa | 0 mm | - | - | - |
| 1777473003 | 21.67° C | 52% | 1016.5 hPa | 0 mm | - | - | - |
| 1777472703 | 21.67° C | 52% | 1016.7 hPa | 0 mm | - | - | - |
| 1777472403 | 21.67° C | 50% | 1016.5 hPa | 0 mm | - | - | - |
| 1777472103 | 21.67° C | 51% | 1016.5 hPa | 0 mm | - | - | - |
| 1777471803 | 21.67° C | 52% | 1016.5 hPa | 0 mm | - | - | - |
| 1777471503 | 21.11° C | 50% | 1016.4 hPa | 0 mm | - | - | - |
| 1777471203 | 21.11° C | 50% | 1016.5 hPa | 0 mm | - | - | - |
| 1777470903 | 21.67° C | 51% | 1016.4 hPa | 0 mm | - | - | - |
| 1777470603 | 22.22° C | 49% | 1016.5 hPa | 0 mm | - | - | - |
| 1777470303 | 22.22° C | 51% | 1016.6 hPa | 0 mm | - | - | - |
| 1777470003 | 22.22° C | 51% | 1016.3 hPa | 0 mm | - | - | - |
| 1777469703 | 22.22° C | 50% | 1016.3 hPa | 0 mm | - | - | - |
| 1777469403 | 22.22° C | 50% | 1016.3 hPa | 0 mm | - | - | - |
| 1777469103 | 22.22° C | 50% | 1016.6 hPa | 0 mm | - | - | - |
* Rain latest hour (hover to see other rain measurements)
** Current wind speed in m/s (hover to see current wind gust speed)